"Pseudo-MPEC" for P122BMg

Created 2024 Dec 23 21:31:14 UT using Find_Orb

Click here for an explanation of pseudo-MPECs

 
 Astrometry: 
     P122BMg* C2024 11 28.60995707 34 59.837+32 16 48.10   ~BSJ2 22.41wXNEOCPF51
     P122BMg  C2024 11 28.63144407 34 59.361+32 17 30.93   ~BSJ2 22.30wXNEOCPF51
     P122BMg  C2024 11 28.64209007 34 59.150+32 17 52.45   ~BSJ2 22.94wXNEOCPF51
     P122BMg 3C2024 11 30.59471807 34 16.791+33 24 02.91   ~BUF2 21.85GVNEOCPT14
     P122BMg 3C2024 11 30.59569807 34 16.767+33 24 05.23   ~BUF2 22.21GVNEOCPT14
     P122BMg 3C2024 11 30.59668307 34 16.739+33 24 07.09   ~BUF2 21.82GVNEOCPT14

Station data:
(F51) Pan-STARRS 1, Haleakala  (N20.707234 W156.255910)  US/Hawaii.
   Observers J. Bulger, T. Lowe, A. Schultz, M. Willman. Measurers K.
   Chambers, S. Chastel, T. de Boer, L. Denneau, J. Fairlamb, H. Flewelling,
   M. Huber, C.-C. Lin, E. Magnier, Y. Ramanjooloo, R. Wainscoat, R. Weryk.
   1.8-m Ritchey-Chrétien + CCD.
(T14) Mauna Kea-UH/Tholen NEO Follow-Up (CFHT)  (N19.825252 W155.468876)
   US/Hawaii.  Observer R. Weryk. 3.6-m Canada-France-Hawaii Telescope.

Orbital elements:  P122BMg
   Perihelion 2025 Jun 20.98130 +/- 129 TT = 23:33:04 (JD 2460847.48130)
Epoch 2024 Nov 30.0 TT = JDT 2460644.5   Earth MOID: 0.6697      AutoNEOCP
M 281.82131901 +/- 80               (J2000 ecliptic)
n   0.38515212 +/- 0.133            Peri.  108.25529 +/- 90
a   1.87088826 +/- 0.431            Node    81.87638 +/- 5.5
e   0.1793038 +/- 0.0994            Incl.   40.42872 +/- 10
P   2.559/934.678d         H 19.89  G  0.15   U 11.4  SR
q 1.53543082 +/- 0.317    Q 2.20634570 +/- 0.894
From 6 observations 2024 Nov. 28-30 (47.7 hr); mean residual 0".14
Residuals in arcseconds: 
241128 F51  .05-  .21-    241128 F51  .16+  .30+    241130 T14  .02+  .16+    
241128 F51  .11-  .08-    241130 T14  .04-  .14-    241130 T14  .03+  .01-    

Ephemerides (geocentric):
Date (UTC) HH   RA             Dec           delta  r     elong  mag " sig PA
---- --------  ------------   ------------  ------ ------ -----  --- --------
2024 12 23 22  07 04 16.679   +48 27 02.94  .87581 1.8072 152.7 21.7 4147   5
2024 12 23 23  07 04 10.964   +48 28 40.67  .87572 1.8071 152.7 21.7 4162   5
2024 12 24 00  07 04 05.239   +48 30 18.35  .87564 1.8070 152.7 21.7 4176   5
2024 12 24 01  07 03 59.504   +48 31 55.99  .87555 1.8069 152.7 21.7 4190   5
2024 12 24 02  07 03 53.759   +48 33 33.60  .87547 1.8068 152.7 21.7 4205   5
2024 12 24 03  07 03 48.006   +48 35 11.16  .87538 1.8067 152.7 21.7 4219   5
2024 12 24 04  07 03 42.242   +48 36 48.68  .87530 1.8066 152.7 21.7 4234   5
2024 12 24 05  07 03 36.469   +48 38 26.15  .87522 1.8065 152.7 21.7 4249   5
2024 12 24 06  07 03 30.686   +48 40 03.59  .87514 1.8064 152.7 21.7 4263   5
2024 12 24 07  07 03 24.894   +48 41 40.98  .87505 1.8063 152.7 21.7 4278   5
2024 12 24 08  07 03 19.093   +48 43 18.33  .87497 1.8062 152.7 21.7 4292   5
2024 12 24 09  07 03 13.281   +48 44 55.63  .87489 1.8061 152.7 21.7 4307   5
2024 12 24 10  07 03 07.460   +48 46 32.89  .87481 1.8061 152.7 21.7 4322   5
2024 12 24 11  07 03 01.630   +48 48 10.11  .87474 1.8060 152.7 21.7 4336   5
2024 12 24 12  07 02 55.790   +48 49 47.28  .87466 1.8059 152.7 21.7 4351   5
2024 12 24 13  07 02 49.941   +48 51 24.41  .87458 1.8058 152.7 21.7 4366   5
2024 12 24 14  07 02 44.082   +48 53 01.49  .87450 1.8057 152.7 21.7 4380   5
2024 12 24 15  07 02 38.213   +48 54 38.53  .87443 1.8056 152.7 21.7 4395   5
2024 12 24 16  07 02 32.335   +48 56 15.53  .87435 1.8055 152.7 21.7 4410   5
2024 12 24 17  07 02 26.448   +48 57 52.48  .87427 1.8054 152.7 21.7 4425   5
2024 12 24 18  07 02 20.551   +48 59 29.38  .87420 1.8053 152.7 21.7 4440   5
2024 12 24 19  07 02 14.644   +49 01 06.24  .87413 1.8052 152.6 21.7 4454   5
2024 12 24 20  07 02 08.728   +49 02 43.05  .87405 1.8051 152.6 21.7 4469   6
2024 12 24 21  07 02 02.802   +49 04 19.81  .87398 1.8050 152.6 21.7 4484   6
2024 12 24 22  07 01 56.867   +49 05 56.53  .87391 1.8049 152.6 21.7 4499   6
2024 12 24 23  07 01 50.923   +49 07 33.20  .87383 1.8048 152.6 21.7 4514   6
2024 12 25 00  07 01 44.969   +49 09 09.82  .87376 1.8047 152.6 21.7 4529   6
2024 12 25 01  07 01 39.005   +49 10 46.39  .87369 1.8046 152.6 21.7 4544   6
2024 12 25 02  07 01 33.032   +49 12 22.92  .87362 1.8045 152.6 21.7 4559   6
2024 12 25 03  07 01 27.049   +49 13 59.40  .87355 1.8044 152.6 21.7 4574   6
2024 12 25 04  07 01 21.057   +49 15 35.83  .87348 1.8043 152.6 21.7 4589   6
2024 12 25 05  07 01 15.056   +49 17 12.21  .87342 1.8042 152.6 21.7 4604   6
2024 12 25 06  07 01 09.044   +49 18 48.55  .87335 1.8041 152.6 21.7 4619   6
2024 12 25 07  07 01 03.024   +49 20 24.83  .87328 1.8040 152.6 21.7 4634   6
2024 12 25 08  07 00 56.994   +49 22 01.07  .87321 1.8040 152.6 21.7 4649   6
2024 12 25 09  07 00 50.955   +49 23 37.25  .87315 1.8039 152.6 21.7 4664   6
2024 12 25 10  07 00 44.906   +49 25 13.39  .87308 1.8038 152.5 21.7 4680   6
2024 12 25 11  07 00 38.847   +49 26 49.47  .87302 1.8037 152.5 21.7 4695   6
2024 12 25 12  07 00 32.779   +49 28 25.51  .87295 1.8036 152.5 21.7 4710   6
2024 12 25 13  07 00 26.702   +49 30 01.49  .87289 1.8035 152.5 21.7 4725   6
2024 12 25 14  07 00 20.616   +49 31 37.42  .87283 1.8034 152.5 21.7 4740   6
2024 12 25 15  07 00 14.519   +49 33 13.31  .87276 1.8033 152.5 21.7 4756   6
2024 12 25 16  07 00 08.414   +49 34 49.14  .87270 1.8032 152.5 21.7 4771   6
2024 12 25 17  07 00 02.299   +49 36 24.92  .87264 1.8031 152.5 21.7 4786   6
2024 12 25 18  06 59 56.174   +49 38 00.64  .87258 1.8030 152.5 21.7 4801   6
2024 12 25 19  06 59 50.041   +49 39 36.32  .87252 1.8029 152.5 21.7 4817   6
2024 12 25 20  06 59 43.897   +49 41 11.94  .87246 1.8028 152.5 21.7 4832   6
2024 12 25 21  06 59 37.745   +49 42 47.51  .87240 1.8027 152.4 21.7 4847   6